Date,TemperatureHighF,TemperatureAvgF,TemperatureLowF,DewpointHighF,DewpointAvgF,DewpointLowF,HumidityHigh,HumidityAvg,HumidityLow,PressureMaxIn,PressureMinIn,WindSpeedMaxMPH,WindSpeedAvgMPH,GustSpeedMaxMPH,PrecipitationSumIn
2013-4-1,61.2,48.2,36.1,52.0,0.3,-50.5,98,40,1,29.69,29.42,14,2,0,0.02
2013-4-3,45.7,39.0,32.2,20.0,16.9,13.8,60,41,30,30.11,29.91,12,4,0,0.00
2013-4-4,56.8,39.1,25.2,38.9,26.0,16.4,98,63,31,30.23,29.94,4,1,0,0.00
2013-4-5,62.2,47.7,37.6,39.6,30.9,20.2,98,59,21,29.93,29.54,15,2,0,0.00
2013-4-6,53.2,39.7,31.1,32.8,16.7,-4.1,91,45,9,30.17,29.80,10,2,0,0.00
2013-4-7,57.0,45.7,34.0,51.1,40.2,-4.1,98,84,12,30.16,29.86,10,2,0,0.00
2013-4-8,48.0,44.9,43.3,-48.2,-50.1,-51.1,1,1,1,29.91,29.82,0,0,0,0.00
2013-4-9,79.3,69.4,58.5,48.5,46.6,44.7,69,46,32,29.86,29.76,7,1,0,0.00
2013-4-10,71.4,58.9,49.6,65.3,29.5,-47.2,98,59,1,29.83,29.68,10,1,0,0.23
2013-4-11,59.2,52.9,45.1,56.8,4.9,-47.3,98,47,1,29.93,29.66,8,1,0,0.01
2013-4-12,45.3,42.0,38.5,44.3,-11.0,-53.7,98,40,1,29.92,29.57,8,2,0,0.47
2013-4-13,58.1,46.1,37.4,47.2,5.1,-54.7,98,46,1,29.81,29.58,8,0,0,0.08
2013-4-14,57.7,48.6,41.0,45.2,36.7,30.9,98,66,40,30.07,29.79,14,2,0,0.00
2013-4-15,64.8,49.8,36.5,41.9,37.2,31.2,93,65,38,30.25,30.08,6,1,0,0.00
2013-4-16,68.5,53.0,39.7,60.4,40.3,-44.1,98,80,1,30.24,29.97,7,1,0,0.00
2013-4-17,68.5,57.8,50.4,50.2,26.7,-46.0,98,45,1,30.17,29.96,12,2,0,0.01
2013-4-18,64.4,53.1,42.8,54.3,41.1,-14.1,98,69,8,30.24,29.98,7,1,0,0.00
2013-4-19,75.6,62.9,52.0,70.6,-15.3,-45.2,98,19,1,29.97,29.52,14,2,0,0.00
2013-4-20,63.9,53.0,43.0,44.7,3.5,-50.5,71,30,1,30.12,29.51,9,1,0,0.22
2013-4-21,56.5,43.1,32.5,37.7,28.6,23.9,93,59,34,30.50,30.15,14,1,0,0.00
2013-4-22,61.3,46.0,34.9,44.6,36.8,30.2,98,74,41,30.55,30.38,6,0,0,0.00
2013-4-23,47.3,41.4,36.0,46.8,30.1,-53.2,98,81,1,30.38,29.95,12,2,0,0.00
2013-4-24,76.3,55.3,41.4,58.4,12.2,-52.2,98,37,1,29.96,29.70,7,0,0,0.00
2013-4-25,68.5,55.9,46.0,44.2,19.4,-46.5,83,39,1,30.13,29.71,7,1,0,0.00
2013-4-26,70.7,54.2,38.3,42.1,38.2,33.9,98,60,30,30.29,30.12,7,1,0,0.00
2013-4-27,72.5,55.5,42.1,44.3,33.7,17.8,90,50,15,30.30,30.14,9,1,0,0.00
2013-4-28,75.4,57.0,42.3,52.0,31.0,-51.7,98,52,1,30.20,30.07,6,1,0,0.00
2013-4-29,60.8,54.6,49.3,57.9,49.6,33.1,98,84,52,30.13,30.06,3,0,0,0.00
2013-4-30,74.8,58.7,46.6,51.4,40.9,23.9,98,60,16,30.21,30.07,5,0,0,0.00